Weather History for Indian Springs, NV

Change the Weather History Date:

Sunday, January 19, 2014

  Actual Average (KDRA) Record (KDRA)
Temperature  
Mean Temperature 45 °F -  
Max Temperature 64 °F 55 °F 68 °F (2005)
Min Temperature 26 °F 33 °F 19 °F (2002)
Degree Days  
Heating Degree Days 20    
Moisture  
Dew Point 8 °F    
Average Humidity 27    
Maximum Humidity 41    
Minimum Humidity 10    
Precipitation  
Precipitation 0.00 in - - ()
Sea Level Pressure  
Sea Level Pressure 30.20 in    
Wind  
Wind Speed 2 mph (NW)    
Max Wind Speed 7 mph    
Max Gust Speed -    
Visibility 10 miles    
Events      
Averages and records for this station are not official NWS values.
T = Trace of Precipitation, MM = Missing Value Source: NWS Daily Summary

Daily Weather History Graph

Daily Weather History Graph

Search for Another Location

Airport:

Trip Planner

Search our weather history database for the weather conditions in past years. The results will help you decide how hot, cold, wet, or windy it might be!

Date:

Astronomy

Jan. 19, 2014 Rise Set
Actual Time 6:52 AM PST 4:54 PM PST
Civil Twilight 6:24 AM PST 5:22 PM PST
Nautical Twilight 5:53 AM PST 5:54 PM PST
Astronomical Twilight 5:22 AM PST 6:25 PM PST
Moon 8:29 PM PST (1/19) 8:31 AM PST (1/19)
Length of Visible Light 10h 58m
Length of Day
10h 02m
Waning Gibbous, 89% of the Moon is Illuminated
Jan 19
Waning Gibbous
Jan 23
Last Quarter
Jan 30
New
Feb 6
First Quarter
Feb 14
Full

Hourly Weather History & Observations

Time (PST) Temp. Windchill Dew Point Humidity Pressure Visibility Wind Dir Wind Speed Gust Speed Precip Events Conditions
12:58 AM 32.7 °F - 9.7 °F 38% 30.21 in 10.0 mi SE 2.3 mph - N/A   Clear
1:58 AM 32.2 °F - 8.8 °F 38% 30.21 in 10.0 mi Calm Calm - N/A   Clear
2:58 AM 31.8 °F - 8.1 °F 37% 30.22 in 10.0 mi Calm Calm - N/A   Clear
3:58 AM 30.9 °F - 7.5 °F 37% 30.21 in 10.0 mi Calm Calm - N/A   Clear
4:58 AM 29.1 °F 25.4 °F 5.5 °F 37% 30.22 in 10.0 mi WNW 3.5 mph - N/A   Clear
5:58 AM 29.7 °F - 6.1 °F 37% 30.23 in 10.0 mi NW 1.2 mph - N/A   Clear
6:58 AM 26.4 °F - 5.0 °F 40% 30.24 in 10.0 mi SE 2.3 mph - N/A   Clear
7:58 AM 29.7 °F - 8.6 °F 41% 30.25 in 10.0 mi NNW 1.2 mph - N/A   Clear
8:58 AM 38.7 °F - 8.2 °F 28% 30.26 in 10.0 mi Calm Calm - N/A   Clear
9:58 AM 47.1 °F - 8.4 °F 21% 30.27 in 10.0 mi NNW 2.3 mph - N/A   Clear
10:58 AM 50.4 °F - 7.7 °F 18% 30.25 in 10.0 mi Variable 1.2 mph - N/A   Clear
11:58 AM 54.7 °F - 8.2 °F 16% 30.21 in 10.0 mi Calm Calm - N/A   Clear
12:58 PM 61.2 °F - 4.3 °F 10% 30.18 in 10.0 mi Variable 1.2 mph - N/A   Clear
1:58 PM 63.3 °F - 5.5 °F 10% 30.17 in 10.0 mi NE 1.2 mph - N/A   Clear
2:58 PM 64.0 °F - 5.7 °F 10% 30.16 in 10.0 mi Calm Calm - N/A   Clear
3:58 PM 62.2 °F - 7.3 °F 11% 30.15 in 10.0 mi SE 5.8 mph - N/A   Clear
4:58 PM 57.4 °F - 10.0 °F 15% 30.15 in 10.0 mi ESE 6.9 mph - N/A   Clear
5:58 PM 50.7 °F - 12.6 °F 22% 30.16 in 10.0 mi ESE 6.9 mph - N/A   Clear
6:58 PM 47.5 °F - 9.5 °F 21% 30.17 in 10.0 mi WSW 5.8 mph - N/A   Clear
7:58 PM 43.5 °F - 11.1 °F 27% 30.18 in 10.0 mi Variable 1.2 mph - N/A   Clear
8:58 PM 38.1 °F 34.6 °F 9.5 °F 31% 30.19 in 10.0 mi WSW 4.6 mph - N/A   Clear
9:58 PM 34.3 °F - 8.6 °F 34% 30.20 in 10.0 mi WNW 2.3 mph - N/A   Clear
10:58 PM 33.3 °F - 8.2 °F 35% 30.20 in 10.0 mi NNE 1.2 mph - N/A   Clear
11:58 PM 32.0 °F 26.4 °F 8.1 °F 37% 30.19 in 10.0 mi West 5.8 mph - N/A   Clear